Miscellaneous Local Product
Issued by NWS Hastings, NE

Home | Current Version | Previous Version | Graphics & Text | Print | Product List | Glossary On
Versions: 1 2 3 4 5 6 7 8 9 10 11 12 13 14 15 16 17 18 19 20 21 22 23 24 25 26 27 28 29 30 31 32 33 34 35 36 37 38 39 40 41 42 43 44 45 46 47 48 49 50
000
AXUS43 KGID 051002
MISGRI

GID CWA HOURLY WEATHER ROUNDUP
NATIONAL WEATHER SERVICE HASTINGS NE
500 AM CDT SUN JUL 05 2015

NOTE: "FAIR" INDICATES FEW OR NO CLOUDS BELOW 12,000 FEET WITH NO
SIGNIFICANT WEATHER AND/OR OBSTRUCTIONS TO VISIBILITY.

...SOUTH CENTRAL NEBRASKA...

CITY           SKY/WX    TMP DP  RH WIND       PRES   REMARKS
GRAND ISLAND   CLOUDY    71  64  78 S16G22    29.87F
HASTINGS       CLOUDY    71  64  78 S10       29.88F
KEARNEY        CLOUDY    72  63  73 S12G17    29.87S
ORD            CLOUDY    72  62  71 SE6       29.83F
YORK           PTCLDY    68  66  94 S10       29.90F
AURORA         MOCLDY    71  65  83 S16       29.88F
LEXINGTON      MOCLDY    73  65  77 S13       29.85S
HOLDREGE       MOCLDY    71  64  76 S12G17    29.87F
HEBRON         PTCLDY    71  64  77 S9        29.91S

...NEBRASKA PANHANDLE...

CITY           SKY/WX    TMP DP  RH WIND       PRES   REMARKS
CHADRON        CLEAR     64  61  90 CALM      29.80F
ALLIANCE       PTCLDY    68  63  84 SE8       29.86F
SCOTTSBLUFF    CLEAR     64  60  87 NE3       29.87R
SIDNEY         PTCLDY    63  59  87 VRB6      29.89F

...WESTERN AND NORTH CENTRAL NEBRASKA...

CITY           SKY/WX    TMP DP  RH WIND       PRES   REMARKS
VALENTINE      CLEAR     78  50  37 SW14      29.76F
AINSWORTH      PTCLDY    79  54  42 SW14      29.77S
ONEILL         PTCLDY    69  66  90 SW10      29.85R THUNDER
BROKEN BOW     CLOUDY    73  64  73 S8        29.85F
IMPERIAL       PTCLDY    70  62  76 S9        29.86S
NORTH PLATTE   CLEAR     72  64  76 E10       29.85F
MCCOOK         PTCLDY    76  64  66 S13       29.84F

...EASTERN NEBRASKA...

CITY           SKY/WX    TMP DP  RH WIND       PRES   REMARKS
NORFOLK        CLOUDY    71  64  78 S14       29.84F
SO SIOUX CITY  PTCLDY    68  61  78 SE9       29.88F
TEKAMAH        PTCLDY    66  62  87 S6        29.89F
COLUMBUS       MOCLDY    70  61  73 S13       29.85F
ALBION         PTCLDY    68  62  82 SE9       29.86F
OMAHA EPPLEY   PTCLDY    70  63  78 S15       29.92F
OFFUTT AFB     PTCLDY    66  63  91 E7        29.91F
MILLARD        PTCLDY    68  64  85 SE7       29.91F
LINCOLN        PTCLDY    69  65  86 S8        29.91S
NEBRASKA CITY  PTCLDY    67  63  87 S9        29.94S
BEATRICE       PTCLDY    69  64  85 S9        29.93R
FALLS CITY     MOCLDY    65  63  93 SE3       29.95R

...NORTHERN KANSAS...

CITY           SKY/WX    TMP DP  RH WIND       PRES   REMARKS
GOODLAND       CLEAR     69  62  78 S14       29.88S
NORTON         SUNNY     73  63  68 SE17      29.85F
PHILLIPSBURG   CLEAR     75  66  73 CALM      29.89R
SMITH CENTER   CLEAR     72  64  78 SE10      29.89S
HAYS           MOCLDY    73  63  68 S12G18    29.89S
RUSSELL        PTCLDY    73  67  81 S16       29.87F
CONCORDIA      PTCLDY    72  65  78 S14       29.91F
SALINA         MOCLDY    77  67  71 S13       29.91S
TOPEKA         PTCLDY    69  65  86 SE6       29.95S



USA.gov is the U.S. government's official web portal to all federal, state and local government web resources and services.